This is the latest recevied weather packets stored in our database for station/object DL4ABR-6. If no packets are shown the sender has not sent any weather packets the latest 1 day(s).
| Time | Temp. | Humidity | Pressure | Rain* | Wind** | Luminosity | Snow |
|---|---|---|---|---|---|---|---|
| 1778104525 | 8.89° C | 99% | 1005 hPa | 26.42 mm | - | - | - |
| 1778102185 | 8.89° C | 99% | 1004.8 hPa | 25.91 mm | - | - | - |
| 1778100679 | 8.89° C | 99% | 1004.5 hPa | 25.65 mm | - | - | - |
| 1778097365 | 10° C | 99% | 1004.2 hPa | 25.4 mm | - | - | - |
| 1778096545 | 10° C | 99% | 1003.8 hPa | 25.4 mm | - | - | - |
| 1778094885 | 10° C | 99% | 1003.8 hPa | 25.4 mm | - | - | - |
| 1778093285 | 10° C | 99% | 1003.2 hPa | 25.4 mm | - | - | - |
| 1778088415 | 10.56° C | 99% | 1003 hPa | 25.15 mm | - | - | - |
| 1778082765 | 10.56° C | 99% | 1002.7 hPa | 22.35 mm | - | - | - |
| 1778081165 | 10.56° C | 99% | 1002.8 hPa | 22.1 mm | - | - | - |
| 1778074505 | 10.56° C | 99% | 1003.2 hPa | 21.59 mm | - | - | - |
| 1778072265 | 10.56° C | 99% | 1003 hPa | 21.34 mm | - | - | - |
| 1778068362 | 10° C | 99% | 1002.9 hPa | 20.83 mm | - | - | - |
| 1778064474 | 9.44° C | 99% | 1002.8 hPa | 20.57 mm | - | - | - |
| 1778063585 | 9.44° C | 99% | 1002.9 hPa | 20.57 mm | - | - | - |
| 1778062070 | 8.89° C | 99% | 1002.9 hPa | 20.57 mm | - | - | - |
| 1778060450 | 8.89° C | 99% | 1002.6 hPa | 20.32 mm | - | - | - |
| 1778058105 | 8.33° C | 99% | 1002.5 hPa | 19.56 mm | - | - | - |
| 1778055811 | 7.78° C | 99% | 1002.3 hPa | 18.29 mm | - | - | - |
| 1778054159 | 7.78° C | 99% | 1002.3 hPa | 17.27 mm | - | - | - |
| 1778052430 | 7.78° C | 99% | 1002.3 hPa | 16 mm | - | - | - |
| 1778051595 | 7.78° C | 99% | 1002.1 hPa | 15.75 mm | - | - | - |
| 1778049923 | 7.78° C | 99% | 1002.1 hPa | 14.99 mm | - | - | - |
| 1778049090 | 8.33° C | 99% | 1002.2 hPa | 14.48 mm | - | - | - |
| 1778048275 | 8.33° C | 99% | 1001.9 hPa | 13.97 mm | - | - | - |
* Rain since midnight (hover to see other rain measurements)
** Current wind speed in m/s (hover to see current wind gust speed)